Tracking 20083 objects as of 10-Dec-2019
HD Live streaming from Space Station
objects crossing your sky now

STARLINK 1056

Track STARLINK 1056 now!
10-day predictions
STARLINK 1056 is classified as:


NORAD ID: 44761
Int'l Code: 2019-074BA
Perigee: 452.4 km
Apogee: 454.0 km
Inclination: 53.0 °
Period: 93.5 minutes
Semi major axis: 6824 km
RCS: Unknown
Launch date: November 11, 2019
Source: United States (US)
Launch site: AIR FORCE EASTERN TEST RANGE (AFETR)
aabbcc
Your satellite tracking list
Your tracking list is empty




NASA's NSSDC Master Catalog

Two Line Element Set (TLE):
1 44761U 19074BA  19344.58334491 -.00070487  00000-0 -17452-2 0  9990
2 44761  53.0052  28.4566 0001223  69.4251 258.6601 15.40017640  4555
Source of the keplerian elements: AFSPC